User: anonymous   Login
Location: Dompnac
(44.5644°N, 4.1026°E)
Time: 00:30:13
(UTC+00:00)
Language:

Cosmos 2285 Rocket - Orbit

View from above orbital plane
View from above orbital plane
View from above satellite
View from above satellite

Ground track
Ground track

The orbit data is extracted from the following two-line orbital elements,

1 23190U 94045B   20336.26843761  .00000112  00000-0  14320-3 0  9995
2 23190  74.0272 169.4610 0019820 221.3531 138.6089 13.74094597320710
Epoch (UTC): 01 December 2020 06:26:33
Eccentricity: 0.0019820
inclination: 74.0272°
perigee height: 970 km
apogee height: 999 km
right ascension of ascending node: 169.4610°
argument of perigee: 221.3531°
revolutions per day: 13.74094597
mean anomaly at epoch: 138.6089°
orbit number at epoch: 32071

The dashed part of the orbit path shows where the satellite is in the earth's shadow,  

DLR